UpperLogo

[source: ADDS]
METAR
LCLK 231230Z VRB02KT 9999 FEW020TCU SCT035 21/17 Q1011 NOSIG =
TAF
TAF LCLK 231130Z 2312/2412 06010KT 9999 FEW025 PROB30 TEMPO 2312/2315 3000 TSRA SCT020CB BECMG 2317/2321 33008KT BECMG 2410/2412 21014KT =
Error
  • JLIB_APPLICATION_ERROR_COMPONENT_NOT_LOADING

mp3

AOPA Cyprus

AOPA sticker

The Aircraft Owners and Pilots Association (AOPA Cyprus), was formed in 1994.  They serves the interests and needs of its members as aircraft owners and pilots, and establishes, maintains, and articulates positions of leadership to promote the economy, safety, and popularity of flight in aircraft. AOPA Cyprus provides members with regular club meetings, seminars, and clinics on air safety issues. Members are also represented before government.  AOPA-Cyprus works to increase general aviation awareness in their country by offering free support to non-pilots on the new media.
Ioannis Papaiacovou
President

 

Login / Register

USER: AOPA Card Number PASSWORD : Your Phone



To Change your password login first and then go to EDIT.